Flag for Germany Weather past 2 weeks in Mayen, Rhineland-Palatinate, Germany

Now
75 °F

Mild.


Feels Like: 77 °F
Forecast: 56 / 86 °F
Wind: 6 mph from West

Location: Buechel

Current Time: Jul 6, 2015 at 8:33:42 PM

Latest Report: Jul 6, 2015 at 7:20 PM


Visibility: N/A

Pressure: 30.12 "Hg

Humidity: 31%

Dew point: 43 °F

Location of MayenLocation

Historic Weather in Mayen — Graph

°F

Mayen temperature yesterday

Maximum temperature yesterday: 91 °F (at 2:20 PM)
Minimum temperature yesterday: 63 °F (at 11:20 PM)
Average temperature yesterday: 77 °F

Past Weeks' High & Low Weather Summary

 TemperatureHumidityPressure
High93 °F (Jul 4, 2:20 PM)100% (Jun 22, 8:20 AM)30.30 "Hg (Jun 22, 8:20 AM)
Low43 °F (Jun 23, 2:20 AM)26% (Jul 4, 2:20 PM)29.68 "Hg (Jun 22, 9:20 PM)
Average67 °F62%30.12 "Hg
* Reported Jun 21 7:20 PM — Jul 6 7:20 PM, Mayen, Weather by CustomWeather, © 2015

Note: Actual official high and low records may vary slightly from our data, if they occured in-between our weather recording intervals... More about our weather records

Advertising

Mayen weather history for previous 24 hours

 ConditionsComfort  
Time TempWeatherWind HumidityBarometerVisibility
7:20 PM
Mon, Jul 6
75 °FMild.6 mph31%30.12 "HgN/A
6:20 PM75 °FMild.7 mph31%30.12 "HgN/A
5:20 PM75 °FMild.6 mph34%30.15 "HgN/A
4:20 PM75 °FPassing clouds.6 mph34%30.18 "HgN/A
3:20 PM72 °FPassing clouds.7 mph41%30.18 "HgN/A
2:20 PM72 °FPassing clouds.7 mph41%30.18 "HgN/A
1:20 PM70 °FPassing clouds.5 mph46%30.21 "HgN/A
12:20 PM68 °FScattered clouds.6 mph49%30.21 "HgN/A
11:20 AM64 °FPassing clouds.3 mph60%30.24 "HgN/A
10:20 AM63 °FPassing clouds.6 mph64%30.24 "HgN/A
9:20 AM61 °FPassing clouds.6 mph72%30.24 "HgN/A
8:20 AM59 °FScattered clouds.6 mph77%30.21 "HgN/A
7:20 AM55 °FPartly sunny.6 mph88%30.21 "HgN/A
6:20 AM55 °FPassing clouds.3 mph82%30.21 "HgN/A
5:20 AM55 °FCool.7 mph94%30.18 "Hg5 mi
4:20 AM55 °FCool.5 mph100%30.18 "Hg4 mi
3:20 AM57 °FCool.5 mph94%30.18 "Hg5 mi
2:20 AM57 °FCool.5 mph94%30.15 "Hg5 mi
1:20 AM59 °FCool.6 mph88%30.15 "Hg5 mi
12:20 AM61 °FCool.7 mph88%30.12 "Hg5 mi
11:20 PM
Sun, Jul 5
63 °FMild.8 mph88%30.09 "Hg5 mi
10:20 PM64 °FMild.5 mph88%30.07 "Hg5 mi
9:20 PM66 °FMild.7 mph83%30.04 "Hg4 mi
8:20 PM70 °FMild.12 mph73%30.01 "Hg5 mi
Weather by CustomWeather, © 2015

See weather overviewHow to use our weather pages